Location: ????????
(38.4362°N, 22.8767°E)
Time: 19:55:22
(UTC+00:00)

Cosmos 2026 Rocket - Pass Details

Date: 23 April 2024
Orbit: 938 x 1001 km, 82.9° (Epoch: 26 May)

Event Time Altitude Azimuth Distance (km) Brightness Sun altitude
Exits shadow 00:53:09 69° 282° (WNW) 1,063 4.0 -28.5°
Drops below altitude 10° 00:59:28 10° 2° (N) 2,778 7.0 -27.7°
Sets 01:02:02 0° 5° (N) 3,732 7.8 -27.4°
